Theta_e
287 287 287 287 286 286 286 286 285 285 285 284 284 284 283 283 284 284 284 284 284 284 284 284 284 284 284 284 284 284 284 284 284 284 284 284 284 284 285 285 285 285
287 287 287 287 286 286 286 286 285 285 284 284 284 283 283 283 283 283 283 283 283 283 283 283 283 283 283 283 283 283 283 283 283 283 283 283 283 283 283 283 284 284
287 287 287 287 286 286 286 286 286 285 285 284 284 283 283 283 283 283 283 282 282 282 281 281 281 281 281 282 282 282 282 282 282 282 282 283 283 282 283 282 283 283
287 287 287 287 287 286 286 286 286 286 285 285 284 284 283 283 283 283 283 283 282 282 282 281 281 281 281 280 280 281 281 281 281 281 282 282 282 282 282 282 282 282
287 287 287 287 287 287 287 287 286 286 286 285 284 284 283 283 283 283 283 283 283 282 282 282 282 282 282 281 281 281 280 280 280 280 280 280 281 281 281 281 281 281
287 287 287 287 287 287 287 287 286 286 286 285 284 283 283 283 282 282 282 282 282 282 282 282 282 282 282 282 282 282 281 281 281 280 280 280 280 280 280 280 280 280
287 287 287 287 287 287 287 286 286 286 286 285 284 283 282 282 282 281 281 281 281 281 282 282 282 282 282 281 282 281 281 281 280 280 280 280 279 279 279 279 279 279
287 287 287 286 286 286 286 286 285 285 285 284 283 282 281 281 281 281 281 281 281 281 281 281 280 280 280 280 280 280 280 280 279 279 279 279 279 278 278 278 278 278
286 286 286 286 286 286 285 285 285 284 284 283 282 281 281 280 280 280 280 280 280 280 280 279 279 279 279 278 278 278 278 278 277 277 278 278 278 278 278 278 278 278
286 286 285 285 285 285 285 285 284 284 283 282 281 281 280 280 280 280 280 280 279 279 279 278 278 278 277 277 277 276 276 276 276 276 276 276 277 277 277 277 277 278
286 285 285 285 285 285 285 284 284 283 283 282 281 281 280 280 280 280 280 280 279 279 279 278 277 277 277 276 276 276 275 275 275 275 275 275 276 276 276 277 277 277
285 285 285 285 285 285 284 284 283 283 282 282 281 281 280 280 280 280 280 280 279 279 278 278 277 276 276 276 275 275 274 274 274 274 274 274 275 275 275 276 276 276
285 285 285 285 284 284 283 283 282 282 281 281 280 280 280 280 280 280 279 279 278 278 277 277 276 276 275 275 274 273 273 273 273 273 273 273 273 273 274 274 274 275
285 285 284 284 284 283 282 282 281 281 281 280 280 279 279 279 279 279 278 278 277 277 276 276 275 275 274 274 273 272 272 272 272 272 272 272 272 272 272 273 273 273
285 284 284 283 283 282 281 281 280 280 280 279 279 279 279 279 278 278 277 277 276 276 275 275 274 274 273 273 272 271 271 271 271 272 272 272 272 272 272 272 272 273
285 284 284 283 282 281 281 280 280 279 279 279 278 278 278 278 277 277 276 276 275 275 274 274 273 273 273 272 271 270 271 271 271 271 271 272 272 272 272 272 272 272
285 284 283 282 282 281 280 280 279 279 279 278 278 278 278 277 277 276 275 275 274 274 274 273 273 273 272 271 270 270 271 271 271 272 271 271 271 271 271 271 271 271
284 283 283 282 281 280 280 279 279 278 278 278 278 278 277 277 276 275 275 274 274 273 273 273 273 273 272 271 269 269 271 272 271 271 271 271 271 271 270 270 270 270
284 283 282 281 280 279 279 279 278 278 278 278 277 277 276 276 275 275 274 273 273 273 273 273 273 273 272 270 269 269 270 271 271 271 271 270 270 269 269 269 269 269
282 282 280 280 279 278 278 278 278 277 277 277 277 276 276 275 275 274 273 273 273 273 273 273 273 273 271 269 268 268 270 271 271 270 269 269 269 268 268 268 268 268
281 281 280 279 278 278 278 277 277 277 276 276 276 275 275 274 273 273 273 272 272 272 273 273 273 272 271 269 268 268 270 271 270 269 268 268 268 268 268 268 268 268
281 280 279 278 278 277 277 277 276 276 276 275 275 274 274 273 272 272 272 272 272 272 272 273 273 272 270 268 267 268 270 269 269 268 268 268 268 268 268 268 268 268
280 279 278 278 277 277 277 276 276 275 275 274 274 273 273 272 272 272 272 272 272 272 271 272 272 271 269 268 267 268 269 269 268 268 268 268 268 268 268 268 268 269
279 278 277 277 277 276 276 275 275 274 274 273 273 272 272 272 271 271 271 271 271 271 271 271 271 270 269 267 267 267 268 269 269 269 269 269 269 269 269 269 269 269
278 277 276 276 276 275 274 274 274 273 273 272 272 272 271 271 271 271 271 271 271 271 270 270 270 270 269 268 267 267 268 269 269 269 269 269 269 269 269 269 269 270
277 276 275 275 275 274 273 273 273 272 272 272 272 271 271 271 270 270 270 270 270 270 270 270 269 269 269 268 267 267 269 269 270 270 269 269 270 270 270 270 271 271
Wind_Speed
26 26 26 26 26 25 24 24 24 24 24 24 24 24 24 24 24 24 24 24 24 24 24 24 24 24 24 23 23 23 23 23 23 22 22 21 20 20 19 20 20 20
25 24 24 25 24 24 24 24 24 24 24 24 24 24 25 25 26 26 27 27 27 27 26 26 26 26 26 26 26 26 26 26 25 25 25 24 23 23 22 21 21 20
22 22 22 23 23 23 23 22 23 23 23 23 23 24 25 26 27 27 28 29 30 30 29 29 28 28 28 28 28 28 28 28 28 28 28 27 26 26 26 25 24 23
20 20 20 21 21 21 20 20 21 22 22 22 22 22 23 24 25 26 27 28 29 30 30 30 30 30 30 30 30 29 29 29 29 28 29 29 29 29 28 28 27 27
17 17 17 18 18 19 20 21 22 22 22 22 22 22 23 24 25 26 26 27 28 28 29 29 30 30 31 31 31 31 31 31 30 29 29 29 29 29 29 29 29 29
13 14 15 16 17 18 20 21 22 23 23 22 23 23 24 25 26 27 27 28 28 28 29 29 30 30 30 31 31 31 32 32 32 31 31 31 31 29 28 27 28 28
10 11 12 13 14 16 18 19 21 22 23 23 23 24 25 26 27 27 28 28 29 29 30 30 31 31 31 32 32 32 32 32 32 32 33 33 33 32 30 28 28 28
7 8 9 10 11 13 16 18 20 22 23 23 24 25 25 26 27 27 27 28 28 29 29 30 30 31 31 31 31 32 33 32 32 32 33 34 33 34 32 30 29 30
4 5 6 8 11 13 16 18 20 22 23 24 24 25 26 26 27 27 27 28 28 28 29 29 29 29 29 30 30 31 32 32 32 31 31 33 33 34 34 33 32 32
3 4 6 9 11 14 16 18 20 22 23 25 25 26 27 27 27 28 28 28 29 29 29 29 29 29 29 29 29 30 30 31 31 30 30 30 31 33 34 34 33 34
4 5 7 10 12 14 17 19 21 22 24 25 26 27 28 28 28 28 29 29 29 29 30 29 29 30 30 31 30 29 29 30 30 30 30 30 30 31 31 31 31 33
5 7 9 11 13 15 17 19 21 23 24 25 26 27 28 28 28 28 28 29 29 29 29 30 30 30 30 30 30 29 29 29 29 29 29 29 30 30 30 30 30 31
7 8 10 12 14 15 17 19 20 22 23 24 26 26 27 28 28 28 28 28 29 29 29 29 30 30 29 29 29 28 28 28 29 29 30 30 31 31 31 31 31 32
8 9 11 13 14 16 17 19 20 22 23 23 24 25 26 26 27 27 28 28 28 28 29 29 29 29 28 28 28 27 27 28 28 29 30 31 31 32 31 31 31 30
9 10 12 14 15 17 18 19 20 21 22 23 24 24 25 25 26 26 27 28 28 28 28 29 28 28 27 27 26 26 26 26 26 26 27 28 28 28 28 27 27 27
10 12 14 15 17 18 19 20 21 22 23 23 24 24 25 25 26 26 27 27 28 28 29 29 28 28 27 25 23 23 24 24 24 24 23 23 24 25 25 24 23 23
12 13 15 17 18 19 20 21 22 22 23 23 24 24 25 25 26 26 26 27 28 29 29 29 29 29 28 26 23 21 22 22 23 24 23 22 23 23 24 24 23 23
13 15 16 17 18 19 20 21 22 22 22 23 24 24 25 25 26 26 27 27 28 29 29 30 30 29 28 26 24 21 21 22 23 23 23 22 22 22 23 24 24 24
14 15 16 17 17 18 19 20 21 22 22 23 24 24 25 25 25 26 26 27 27 28 30 30 30 29 28 26 24 22 22 22 22 22 22 22 22 22 23 22 23 24
14 15 16 17 17 18 19 20 20 21 21 22 23 24 24 25 25 26 26 26 27 28 29 30 30 29 28 26 24 23 22 22 22 22 21 21 21 21 21 21 21 23
14 15 16 17 18 18 19 19 20 21 21 22 23 23 24 24 25 26 26 26 26 27 29 30 30 28 28 26 23 23 23 22 22 21 20 20 20 20 20 21 21 22
15 16 17 17 18 19 19 20 20 20 21 22 23 23 23 24 24 25 26 26 26 26 28 30 29 28 27 25 23 23 23 22 22 22 21 21 21 21 20 20 21 22
15 16 17 18 18 19 19 20 20 20 21 21 23 24 24 24 25 25 25 25 26 26 27 29 30 28 26 24 23 22 23 23 24 25 24 25 25 24 22 20 21 22
16 16 17 17 18 18 19 19 19 20 20 20 21 23 24 24 25 26 25 24 24 25 25 28 30 27 25 24 23 21 23 24 25 27 28 28 27 25 24 24 26 27
15 16 16 17 17 18 18 19 19 19 19 20 21 22 24 24 24 25 26 24 23 23 24 25 28 27 24 24 24 22 23 24 26 27 28 29 28 28 29 30 32 32
15 16 16 16 17 18 18 18 18 19 19 20 21 22 23 24 24 24 26 25 23 23 23 24 26 27 25 25 24 23 23 24 26 27 29 31 31 31 31 31 33 34
Wind_Direction
71 68 65 62 59 54 50 47 44 41 37 33 30 28 25 22 19 17 17 16 14 13 11 10 7 5 3 1 359 357 356 355 354 352 351 351 348 346 344 342 341 341
67 64 60 57 53 49 44 41 38 35 32 28 24 21 17 15 12 11 10 9 8 7 6 4 2 0 358 355 353 352 350 349 347 346 344 343 341 339 338 335 333 332
63 58 54 50 47 43 38 35 32 29 26 22 19 15 12 8 6 5 4 3 2 2 2 1 360 359 356 354 352 350 348 346 344 342 339 337 336 334 332 330 328 326
59 54 50 46 41 37 31 28 25 22 19 16 13 9 6 3 1 359 358 357 355 355 354 354 354 353 353 352 351 349 347 345 343 341 337 334 333 331 329 328 325 323
59 53 48 42 37 31 25 21 18 14 11 8 5 2 359 357 355 353 351 350 349 348 347 346 346 346 346 345 345 345 343 342 341 340 336 332 331 330 327 326 323 321
58 50 43 35 29 23 19 16 12 7 4 1 358 355 354 353 351 350 348 347 346 344 343 342 341 341 341 340 338 338 337 336 336 335 332 329 328 327 326 325 321 319
49 41 35 26 20 16 12 9 6 2 359 356 353 351 350 350 349 348 347 346 345 344 343 342 341 340 339 338 336 335 334 333 332 331 329 327 325 324 324 323 320 316
35 27 21 13 9 7 5 3 1 358 355 352 350 349 348 347 346 346 345 345 344 344 343 342 342 340 339 338 337 334 332 331 330 329 327 325 323 322 321 321 319 315
15 5 359 358 358 358 358 357 355 353 351 348 347 346 345 345 345 345 345 344 343 343 342 342 341 339 338 337 336 334 331 329 328 326 324 322 320 318 318 319 317 314
330 338 341 345 348 349 350 349 349 348 346 343 342 342 342 343 343 343 343 342 342 342 341 340 339 337 336 335 333 331 328 326 325 323 320 318 316 314 314 314 314 311
296 314 326 333 337 340 341 342 342 342 340 339 337 338 339 339 339 339 339 339 339 339 338 337 336 335 333 332 331 330 327 323 321 319 317 315 312 311 310 310 309 307
283 302 316 325 330 333 334 336 336 336 335 334 333 334 334 334 334 335 335 335 335 335 335 334 333 333 332 332 331 330 327 324 321 318 316 313 310 308 307 306 304 303
277 296 310 318 323 326 328 330 330 330 330 329 329 331 331 331 331 332 332 333 333 333 333 332 332 333 333 334 333 331 328 324 321 318 314 311 308 306 305 303 301 301
276 294 306 313 318 321 323 325 325 326 326 327 328 329 330 330 331 331 331 331 332 332 332 332 333 334 335 336 334 331 327 322 318 316 313 311 309 308 307 306 304 302
278 293 302 308 313 316 319 321 323 325 325 327 328 329 330 330 330 330 330 331 332 332 333 333 333 334 337 337 334 329 324 319 316 314 312 311 310 310 310 309 308 306
279 290 298 305 311 315 318 320 322 324 325 327 328 328 328 328 329 330 330 331 332 332 333 333 333 335 337 336 332 325 318 314 312 310 310 308 308 309 309 309 309 307
280 291 300 306 310 313 315 317 319 321 323 325 325 325 326 327 329 330 331 332 333 333 333 332 332 335 336 334 331 324 314 311 310 308 307 306 306 307 307 307 306 305
287 295 301 304 307 308 311 314 316 319 321 322 323 324 325 327 328 329 331 332 333 333 332 330 331 333 334 333 330 323 314 311 309 306 305 304 304 304 304 304 303 303
290 295 298 300 304 306 309 313 315 317 320 321 322 323 323 325 327 328 330 332 332 332 330 328 329 332 333 333 330 321 314 312 309 305 304 303 302 302 301 301 301 301
288 293 296 300 304 307 309 311 313 316 319 319 319 320 322 324 326 327 328 331 331 330 327 325 327 330 331 332 329 320 315 313 309 305 303 301 300 300 299 299 299 299
289 292 296 300 303 305 307 309 311 314 316 317 317 319 321 323 325 325 326 329 330 328 325 323 326 329 330 331 327 319 315 313 309 305 304 302 300 300 299 298 298 297
288 290 294 297 300 303 305 307 310 314 316 317 317 318 321 321 322 323 324 327 328 327 324 322 324 328 331 331 327 318 313 313 310 307 306 303 300 300 299 298 297 296
284 286 290 294 297 300 303 306 310 313 315 316 316 317 319 320 320 321 323 325 326 326 324 321 322 329 333 331 326 318 314 312 310 308 307 305 302 300 298 295 293 293
280 284 288 292 295 299 302 305 308 311 313 315 315 315 316 317 318 318 320 323 324 324 324 321 321 328 333 331 327 319 312 311 310 308 307 305 303 300 297 295 294 293
278 283 287 291 294 297 299 302 306 309 311 312 312 312 312 313 315 316 318 322 323 323 323 322 322 327 333 333 328 317 310 310 309 306 304 303 301 299 297 295 295 295
278 282 286 289 292 294 296 300 305 308 310 310 310 310 309 310 313 316 316 319 322 323 323 324 324 327 332 334 327 315 309 309 308 304 303 301 298 296 294 293 294 296